Regional Weather Roundup
Issued by NWS

Home | Current Version | Previous Version | Graphics & Text | Print | Product List | Glossary On
Versions: 1 2 3 4 5 6 7 8 9 10 11 12 13 14 15 16 17 18 19 20 21 22 23 24 25 26 27 28 29 30 31 32 33 34 35 36 37 38 39 40 41 42 43 44 45 46 47 48 49 50
865
ASUS43 KOAX 230910
RWRNE

WEATHER ROUNDUP FOR NEBRASKA
NATIONAL WEATHER SERVICE OMAHA NE
400 AM CDT MON APR 23 2018

NOTES: SATELLITE DATA IS BEING USED TO AUGMENT CLOUD COVER ABOVE
       12000 FEET.
       "FAIR" INDICATES FEW OR NO CLOUDS BELOW 12,000 FEET WITH NO
       SIGNIFICANT WEATHER AND/OR OBSTRUCTIONS TO VISIBILITY.


NEZ001>004-019>022-054>056-231000-
NEBRASKA PANHANDLE

CITY           SKY/WX    TMP DP  RH WIND       PRES   REMARKS
SCOTTSBLUFF    CLEAR     37  36  96 E9        30.10F WCI  30
ALLIANCE       CLEAR     33  33 100 SE7       30.11F WCI  27
CHADRON        CLEAR     44  37  76 SW7       30.09S
GORDON         FAIR      40  35  81 CALM      30.12S
KIMBALL        CLEAR     37  35  94 S7        30.10F WCI  31
SIDNEY         CLEAR     35  32  88 S7        30.12F WCI  29
$$

NEZ057>060-069>072-079>082-231000-
SOUTHWEST NEBRASKA

CITY           SKY/WX    TMP DP  RH WIND       PRES   REMARKS
NORTH PLATTE   CLEAR     33  30  88 CALM      30.17F FOG
IMPERIAL       CLEAR     37  34  89 CALM      30.16F
LEXINGTON      CLEAR     36  34  91 CALM      30.17S
MCCOOK         CLEAR     35  33  92 W5        30.16F WCI  31
OGALLALA       CLEAR     35  33  94 CALM      30.16S
$$

NEZ005>010-023>029-035>040-094-231000-
NORTH CENTRAL NEBRASKA

CITY           SKY/WX    TMP DP  RH WIND       PRES   REMARKS
VALENTINE      CLEAR     39  36  89 SW9       30.14F WCI  33
AINSWORTH      CLEAR     37  36  95 S6        30.15F WCI  32
BROKEN BOW     PTCLDY    33  31  92 CALM      30.16F
O`NEILL        CLEAR     43  36  77 S5        30.17S
ORD            CLEAR     35  32  88 CALM      30.16S
THEDFORD       CLEAR     39  36  89 S3        30.16F
$$

NEZ041-046>049-061>064-073>077-083>087-231000-
SOUTH CENTRAL NEBRASKA

CITY           SKY/WX    TMP DP  RH WIND       PRES   REMARKS
GRAND ISLAND   CLOUDY    48  41  76 CALM      30.17S
AURORA         CLOUDY    46  33  62 E6        30.16F
HASTINGS       CLOUDY    49  43  80 NE5       30.16S
HEBRON         CLEAR     41  36  80 CALM      30.15S
HOLDREGE       CLOUDY    40  36  87 NW3       30.16S
KEARNEY        CLOUDY    47  41  80 NW6       30.17S
YORK             N/A     45  32  61 CALM      30.17S
$$

NEZ011>018-030>034-042>045-231000-
NORTHEAST NEBRASKA

CITY           SKY/WX    TMP DP  RH WIND       PRES   REMARKS
NORFOLK        CLEAR     40  33  76 CALM      30.17S
ALBION         CLOUDY    51  36  55 CALM      30.18S
BLAIR          CLEAR     47  27  44 NE3       30.17S
COLUMBUS       CLEAR     39  30  70 E3        30.18S
FREMONT        CLEAR     41  31  67 CALM      30.18S
TEKAMAH        CLEAR     33  31  92 N8        30.19R WCI  26
WAYNE          CLEAR     32  32  99 CALM      30.19S
$$

NEZ050>053-065>068-078-088>093-231000-
SOUTHEAST NEBRASKA

CITY           SKY/WX    TMP DP  RH WIND       PRES   REMARKS
LINCOLN        CLEAR     42  31  64 N7        30.18R
OMAHA EPPLEY   CLEAR     42  31  64 N5        30.17S
BEATRICE       CLEAR     46  34  62 E6        30.16R
FALLS CITY     PTCLDY    45  34  65 N5        30.13S
NEBRASKA CITY  MOCLDY    46  31  55 N5        30.16S
PLATTSMOUTH    CLEAR     50  27  41 CALM      30.17S
$$

NEZ044-045-051>053-067-231000-
OMAHA AREA

CITY           SKY/WX    TMP DP  RH WIND       PRES   REMARKS
OMAHA EPPLEY   CLEAR     42  31  64 N5        30.17S
BLAIR          CLEAR     47  27  44 NE3       30.17S
FREMONT        CLEAR     41  31  67 CALM      30.18S
MILLARD        CLEAR     46  30  54 CALM      30.17S
OFFUTT AFB     CLEAR     45  26  48 N1        30.16S
PLATTSMOUTH    CLEAR     50  27  41 CALM      30.17S
WAHOO          FAIR      40  28  60 N6        30.17S
$$




USA.gov is the U.S. government's official web portal to all federal, state and local government web resources and services.